カタログに戻る

CZ-4 DEB

運用中SSO
NORAD 26154·DEBRIS·🇨🇳 China

打ち上げ Oct 14, 1999 から Taiyuan Satellite Launch Center

Loading…

次のパス (今後24時間)

TLE

最新Source: Space-Track

元期: Sep 11, 2026, 17:48 UTC

1 26154U 99057AQ  26254.74191128  .00000603  00000-0  53812-3 0  9991
2 26154  99.5421 173.7954 0517031 294.5351  60.2724 13.40434360290226

AllMySatでCZ-4 DEBをリアルタイム追跡

Download on the App Store